SCX8706 KCLT-KIAD

Flight info

Callsign SCX8706
Flight time N/A
Altitude 31000
Route KILNS5 AUDII DORRN CAVLR6
Aircraft B738/M-SDE2E3FGHIRWXY/LB1

Departure

Time 2026-05-06 19:09
Airport Charlotte Douglas International Airport (KCLT)

Arrival

Time N/A
Airport Washington Dulles International Airport (KIAD)
Time Latitude Longitude Altitude Speed Heading
2026-05-06 18:55 35.20598 -80.93732 717 ft 0 kts 265°
2026-05-06 18:56 35.20598 -80.93729 718 ft 3 kts 266°
2026-05-06 18:56 35.20598 -80.93708 717 ft 4 kts 289°
2026-05-06 18:57 35.20584 -80.93684 719 ft 4 kts 337°
2026-05-06 18:57 35.20572 -80.93680 719 ft 1 kts 356°
2026-05-06 19:00 35.20576 -80.93680 719 ft 2 kts 356°
2026-05-06 19:01 35.20615 -80.93684 717 ft 10 kts 355°
2026-05-06 19:01 35.20674 -80.93656 715 ft 10 kts 54°
2026-05-06 19:01 35.20724 -80.93606 718 ft 9 kts
2026-05-06 19:01 35.20789 -80.93606 717 ft 9 kts 356°
2026-05-06 19:02 35.20852 -80.93612 718 ft 9 kts 355°
2026-05-06 19:02 35.20913 -80.93617 717 ft 9 kts 356°
2026-05-06 19:02 35.20975 -80.93623 717 ft 10 kts 356°
2026-05-06 19:02 35.21051 -80.93629 717 ft 12 kts 356°
2026-05-06 19:03 35.21132 -80.93636 719 ft 12 kts 355°
2026-05-06 19:03 35.21211 -80.93642 720 ft 11 kts 356°
2026-05-06 19:03 35.21287 -80.93649 723 ft 11 kts 355°
2026-05-06 19:03 35.21368 -80.93657 720 ft 13 kts 354°
2026-05-06 19:04 35.21462 -80.93665 722 ft 14 kts 357°
2026-05-06 19:04 35.21568 -80.93673 723 ft 16 kts 356°
2026-05-06 19:04 35.21676 -80.93683 726 ft 15 kts 355°
2026-05-06 19:04 35.21779 -80.93692 725 ft 15 kts 356°
2026-05-06 19:05 35.21878 -80.93700 725 ft 14 kts 355°
2026-05-06 19:05 35.21972 -80.93709 727 ft 13 kts 355°
2026-05-06 19:05 35.22063 -80.93716 726 ft 13 kts 357°
2026-05-06 19:05 35.22151 -80.93723 729 ft 13 kts 355°
2026-05-06 19:06 35.22237 -80.93731 729 ft 12 kts 357°
2026-05-06 19:06 35.22321 -80.93735 730 ft 12 kts 354°
2026-05-06 19:06 35.22402 -80.93745 729 ft 12 kts 355°
2026-05-06 19:06 35.22471 -80.93753 730 ft 8 kts 354°
2026-05-06 19:07 35.22496 -80.93737 731 ft 3 kts 52°
2026-05-06 19:07 35.22504 -80.93712 731 ft 4 kts 75°
2026-05-06 19:07 35.22508 -80.93641 731 ft 11 kts 106°
2026-05-06 19:07 35.22460 -80.93612 730 ft 5 kts 176°
2026-05-06 19:08 35.22446 -80.93610 730 ft 13 kts 173°
2026-05-06 19:08 35.22097 -80.93580 727 ft 86 kts 176°
2026-05-06 19:08 35.21273 -80.93508 720 ft 149 kts 175°
2026-05-06 19:08 35.20098 -80.93412 993 ft 177 kts 176°
2026-05-06 19:09 35.18845 -80.93243 1581 ft 187 kts 162°
2026-05-06 19:09 35.17792 -80.92231 1746 ft 216 kts 121°
2026-05-06 19:09 35.17537 -80.90362 1854 ft 230 kts 75°
2026-05-06 19:09 35.18366 -80.88786 2551 ft 216 kts 41°
2026-05-06 19:10 35.19441 -80.87571 3276 ft 207 kts 45°
2026-05-06 19:10 35.20396 -80.86266 3938 ft 206 kts 50°
2026-05-06 19:10 35.21294 -80.84803 4182 ft 225 kts 56°
2026-05-06 19:10 35.22162 -80.83130 4396 ft 241 kts 59°
2026-05-06 19:11 35.22983 -80.81306 4772 ft 248 kts 63°
2026-05-06 19:11 35.23744 -80.79398 5239 ft 250 kts 65°
2026-05-06 19:11 35.24450 -80.77452 5716 ft 252 kts 66°
2026-05-06 19:11 35.25121 -80.75467 6183 ft 253 kts 68°
2026-05-06 19:12 35.25770 -80.73448 6630 ft 255 kts 69°
2026-05-06 19:12 35.26399 -80.71413 7080 ft 257 kts 69°
2026-05-06 19:12 35.27020 -80.69357 7518 ft 258 kts 70°
2026-05-06 19:12 35.27635 -80.67283 7965 ft 260 kts 70°
2026-05-06 19:13 35.28240 -80.65219 8370 ft 262 kts 70°
2026-05-06 19:13 35.28854 -80.63110 8765 ft 264 kts 70°
2026-05-06 19:13 35.29485 -80.60932 8868 ft 278 kts 70°
2026-05-06 19:13 35.30143 -80.58649 8978 ft 290 kts 70°
2026-05-06 19:14 35.30824 -80.56280 9064 ft 300 kts 70°
2026-05-06 19:14 35.31528 -80.53832 9139 ft 309 kts 70°
2026-05-06 19:14 35.32251 -80.51310 9204 ft 317 kts 70°
2026-05-06 19:14 35.32988 -80.48740 9270 ft 323 kts 70°
2026-05-06 19:15 35.33763 -80.46141 9439 ft 325 kts 69°
2026-05-06 19:15 35.34557 -80.43544 9656 ft 325 kts 69°
2026-05-06 19:15 35.35351 -80.40953 9850 ft 326 kts 69°
2026-05-06 19:15 35.36147 -80.38352 10034 ft 327 kts 69°
2026-05-06 19:16 35.36944 -80.35739 10221 ft 328 kts 69°
2026-05-06 19:16 35.37741 -80.33120 10406 ft 328 kts 69°
2026-05-06 19:16 35.38539 -80.30490 10588 ft 330 kts 69°
2026-05-06 19:16 35.39339 -80.27850 10765 ft 330 kts 69°
2026-05-06 19:17 35.40138 -80.25207 10950 ft 331 kts 69°
2026-05-06 19:17 35.40939 -80.22560 11136 ft 332 kts 69°
2026-05-06 19:17 35.41742 -80.19902 11305 ft 333 kts 69°
2026-05-06 19:17 35.42547 -80.17236 11488 ft 334 kts 69°
2026-05-06 19:18 35.43356 -80.14563 11659 ft 335 kts 69°
2026-05-06 19:18 35.44173 -80.11888 11832 ft 335 kts 69°
2026-05-06 19:18 35.44994 -80.09210 12006 ft 336 kts 69°
2026-05-06 19:18 35.45818 -80.06521 12176 ft 337 kts 69°
2026-05-06 19:19 35.46643 -80.03825 12339 ft 338 kts 69°
2026-05-06 19:19 35.47468 -80.01121 12514 ft 339 kts 69°
2026-05-06 19:19 35.48295 -79.98412 12687 ft 340 kts 69°
2026-05-06 19:19 35.49122 -79.95697 12847 ft 341 kts 69°
2026-05-06 19:20 35.49952 -79.92968 13011 ft 342 kts 69°
2026-05-06 19:20 35.50783 -79.90235 13185 ft 342 kts 69°
2026-05-06 19:20 35.51616 -79.87493 13348 ft 343 kts 69°
2026-05-06 19:20 35.52440 -79.84777 13514 ft 344 kts 69°
2026-05-06 19:21 35.53277 -79.82020 13684 ft 345 kts 69°
2026-05-06 19:21 35.54128 -79.79264 13852 ft 346 kts 69°
2026-05-06 19:21 35.54993 -79.76506 14018 ft 347 kts 69°
2026-05-06 19:21 35.55863 -79.73737 14182 ft 347 kts 69°
2026-05-06 19:22 35.56735 -79.70959 14346 ft 348 kts 69°
2026-05-06 19:22 35.57604 -79.68183 14516 ft 349 kts 69°
2026-05-06 19:22 35.58475 -79.65395 14675 ft 350 kts 69°
2026-05-06 19:22 35.59346 -79.62601 14840 ft 350 kts 69°
2026-05-06 19:23 35.60217 -79.59806 15006 ft 351 kts 69°
2026-05-06 19:23 35.61080 -79.57033 15161 ft 352 kts 69°
2026-05-06 19:23 35.61953 -79.54221 15313 ft 353 kts 69°
2026-05-06 19:23 35.62831 -79.51395 15461 ft 354 kts 69°
2026-05-06 19:24 35.63713 -79.48551 15614 ft 355 kts 69°
2026-05-06 19:24 35.64591 -79.45715 15756 ft 355 kts 69°
2026-05-06 19:24 35.65472 -79.42872 15895 ft 356 kts 69°
2026-05-06 19:24 35.66353 -79.40020 16038 ft 357 kts 69°
2026-05-06 19:25 35.67234 -79.37169 16159 ft 357 kts 69°
2026-05-06 19:25 35.68117 -79.34309 16294 ft 358 kts 69°
2026-05-06 19:25 35.69002 -79.31439 16414 ft 359 kts 69°
2026-05-06 19:25 35.69998 -79.28627 16520 ft 360 kts 60°
2026-05-06 19:26 35.71456 -79.26134 16638 ft 360 kts 47°
2026-05-06 19:26 35.73295 -79.24056 16756 ft 360 kts 37°
2026-05-06 19:26 35.75273 -79.22231 16861 ft 360 kts 36°
2026-05-06 19:26 35.77326 -79.20391 16967 ft 361 kts 36°
2026-05-06 19:27 35.79336 -79.18593 17069 ft 362 kts 36°
2026-05-06 19:27 35.81373 -79.16761 17177 ft 362 kts 36°
2026-05-06 19:27 35.83403 -79.14923 17271 ft 363 kts 36°
2026-05-06 19:27 35.85439 -79.13068 17368 ft 363 kts 36°
2026-05-06 19:28 35.87469 -79.11212 17462 ft 364 kts 36°
2026-05-06 19:28 35.89503 -79.09347 17560 ft 364 kts 36°
2026-05-06 19:28 35.91537 -79.07479 17653 ft 365 kts 36°
2026-05-06 19:28 35.93578 -79.05602 17737 ft 365 kts 36°
2026-05-06 19:29 35.95617 -79.03725 17823 ft 366 kts 36°
2026-05-06 19:29 35.97657 -79.01846 17904 ft 366 kts 36°
2026-05-06 19:29 35.99701 -78.99963 17988 ft 367 kts 36°
2026-05-06 19:29 36.01749 -78.98075 18068 ft 367 kts 36°
2026-05-06 19:30 36.03793 -78.96188 18139 ft 368 kts 36°
2026-05-06 19:30 36.05845 -78.94293 18216 ft 368 kts 36°
2026-05-06 19:30 36.07894 -78.92400 18295 ft 368 kts 36°
2026-05-06 19:30 36.09922 -78.90525 18366 ft 369 kts 37°
2026-05-06 19:31 36.11975 -78.88625 18431 ft 369 kts 37°
2026-05-06 19:31 36.14039 -78.86714 18497 ft 369 kts 37°
2026-05-06 19:31 36.18159 -78.82897 18628 ft 370 kts 37°
2026-05-06 19:32 36.20227 -78.81000 18685 ft 370 kts 34°
2026-05-06 19:32 36.22425 -78.79330 18737 ft 371 kts 29°
2026-05-06 19:32 36.24690 -78.77793 18796 ft 371 kts 28°
2026-05-06 19:32 36.26967 -78.76294 18845 ft 371 kts 27°
2026-05-06 19:33 36.29254 -78.74792 18894 ft 372 kts 27°
2026-05-06 19:33 36.31533 -78.73285 18952 ft 372 kts 28°
2026-05-06 19:33 36.33813 -78.71765 19007 ft 372 kts 28°
2026-05-06 19:33 36.36100 -78.70230 19046 ft 373 kts 28°
2026-05-06 19:34 36.38381 -78.68691 19105 ft 373 kts 28°
2026-05-06 19:34 36.40628 -78.67169 19157 ft 373 kts 28°
2026-05-06 19:34 36.42910 -78.65621 19204 ft 373 kts 28°
2026-05-06 19:34 36.45195 -78.64069 19255 ft 373 kts 28°
2026-05-06 19:35 36.47473 -78.62519 19300 ft 374 kts 28°
2026-05-06 19:35 36.49755 -78.60965 19344 ft 374 kts 28°
2026-05-06 19:35 36.52039 -78.59410 19379 ft 374 kts 28°
2026-05-06 19:35 36.54323 -78.57852 19424 ft 374 kts 28°
2026-05-06 19:36 36.56603 -78.56296 19462 ft 374 kts 28°
2026-05-06 19:36 36.58887 -78.54737 19498 ft 375 kts 28°
2026-05-06 19:36 36.61172 -78.53176 19620 ft 372 kts 28°
2026-05-06 19:36 36.63421 -78.51638 19900 ft 366 kts 28°
2026-05-06 19:37 36.65650 -78.50114 20006 ft 366 kts 28°
2026-05-06 19:37 36.67887 -78.48583 20054 ft 368 kts 28°
2026-05-06 19:37 36.70129 -78.47047 20110 ft 368 kts 28°
2026-05-06 19:37 36.71619 -78.46026 20171 ft 368 kts 28°
2026-05-06 19:38 36.74595 -78.43985 20270 ft 369 kts 28°
2026-05-06 19:38 36.76846 -78.42440 20335 ft 369 kts 28°
2026-05-06 19:38 36.79099 -78.40893 20396 ft 370 kts 28°
2026-05-06 19:38 36.81353 -78.39343 20462 ft 370 kts 28°
2026-05-06 19:39 36.83611 -78.37791 20521 ft 370 kts 28°
2026-05-06 19:39 36.85869 -78.36237 20581 ft 371 kts 28°
2026-05-06 19:39 36.88132 -78.34678 20623 ft 372 kts 28°
2026-05-06 19:39 36.90401 -78.33115 20631 ft 373 kts 28°
2026-05-06 19:40 36.92676 -78.31546 20610 ft 374 kts 28°
2026-05-06 19:40 36.94936 -78.29986 20620 ft 370 kts 28°
2026-05-06 19:40 36.97181 -78.28435 20727 ft 366 kts 28°
2026-05-06 19:40 36.99408 -78.26897 20837 ft 365 kts 28°
2026-05-06 19:41 37.01599 -78.25381 20949 ft 364 kts 28°
2026-05-06 19:41 37.03814 -78.23848 21052 ft 363 kts 28°
2026-05-06 19:41 37.06028 -78.22315 21167 ft 363 kts 28°
2026-05-06 19:41 37.08235 -78.20786 21280 ft 362 kts 28°
2026-05-06 19:42 37.10442 -78.19256 21390 ft 362 kts 28°
2026-05-06 19:42 37.12642 -78.17730 21500 ft 361 kts 28°
2026-05-06 19:42 37.14838 -78.16205 21613 ft 361 kts 28°
2026-05-06 19:42 37.17032 -78.14681 21723 ft 360 kts 28°
2026-05-06 19:43 37.19221 -78.13158 21833 ft 360 kts 28°
2026-05-06 19:43 37.21410 -78.11636 21949 ft 360 kts 28°
2026-05-06 19:43 37.23602 -78.10110 21992 ft 361 kts 28°
2026-05-06 19:43 37.25809 -78.08572 22000 ft 364 kts 28°
2026-05-06 19:44 37.28030 -78.07024 22010 ft 366 kts 28°
2026-05-06 19:44 37.30259 -78.05469 22012 ft 368 kts 28°
2026-05-06 19:44 37.32472 -78.03924 22006 ft 370 kts 28°
2026-05-06 19:44 37.34725 -78.02350 22005 ft 371 kts 28°
2026-05-06 19:45 37.36986 -78.00769 22005 ft 372 kts 29°
2026-05-06 19:45 37.39253 -77.99184 22003 ft 373 kts 29°
2026-05-06 19:45 37.41525 -77.97594 22002 ft 374 kts 29°
2026-05-06 19:45 37.43799 -77.96000 22001 ft 375 kts 29°
2026-05-06 19:46 37.45309 -77.94942 22002 ft 375 kts 29°
2026-05-06 19:46 37.47588 -77.93343 22001 ft 375 kts 29°
2026-05-06 19:46 37.49870 -77.91741 22002 ft 376 kts 29°
2026-05-06 19:46 37.52174 -77.90124 21989 ft 370 kts 29°
2026-05-06 19:47 37.54401 -77.88626 21990 ft 365 kts 25°
2026-05-06 19:47 37.56695 -77.87307 21997 ft 360 kts 23°
2026-05-06 19:47 37.58990 -77.86050 21998 ft 359 kts 23°
2026-05-06 19:47 37.61267 -77.84784 22004 ft 358 kts 24°
2026-05-06 19:48 37.63542 -77.83495 22004 ft 358 kts 24°
2026-05-06 19:48 37.65557 -77.82345 22005 ft 358 kts 24°
2026-05-06 19:48 37.67835 -77.81066 22013 ft 360 kts 23°
2026-05-06 19:48 37.69932 -77.79906 22014 ft 365 kts 23°
2026-05-06 19:49 37.72273 -77.78614 22015 ft 368 kts 23°
2026-05-06 19:49 37.74592 -77.77333 22006 ft 370 kts 23°
2026-05-06 19:49 37.76980 -77.76010 21767 ft 379 kts 23°
2026-05-06 19:49 37.79398 -77.74667 21501 ft 376 kts 23°
2026-05-06 19:50 37.81807 -77.73328 20744 ft 382 kts 23°
2026-05-06 19:50 37.84233 -77.71978 20000 ft 380 kts 23°
2026-05-06 19:50 37.86640 -77.70638 19254 ft 376 kts 23°
2026-05-06 19:50 37.89019 -77.69312 18503 ft 372 kts 23°
2026-05-06 19:51 37.91377 -77.67997 17752 ft 368 kts 23°
2026-05-06 19:51 37.93714 -77.66692 17004 ft 365 kts 23°
2026-05-06 19:51 37.96026 -77.65401 16256 ft 361 kts 23°
2026-05-06 19:51 37.98317 -77.64120 15508 ft 358 kts 23°
2026-05-06 19:52 38.00587 -77.62850 14756 ft 355 kts 23°
2026-05-06 19:52 38.02837 -77.61590 14013 ft 352 kts 23°
2026-05-06 19:52 38.05057 -77.60347 13498 ft 342 kts 23°
2026-05-06 19:52 38.07189 -77.59087 13005 ft 333 kts 26°
2026-05-06 19:53 38.09210 -77.57786 12537 ft 325 kts 27°
2026-05-06 19:53 38.11200 -77.56495 12060 ft 318 kts 26°
2026-05-06 19:53 38.13160 -77.55237 11579 ft 312 kts 26°
2026-05-06 19:53 38.15078 -77.54013 11224 ft 302 kts 26°
2026-05-06 19:54 38.16899 -77.52852 11137 ft 284 kts 26°
2026-05-06 19:54 38.18658 -77.51728 10656 ft 284 kts 26°
2026-05-06 19:54 38.20423 -77.50598 10282 ft 280 kts 26°
2026-05-06 19:54 38.22115 -77.49516 10174 ft 266 kts 26°
2026-05-06 19:55 38.23748 -77.48474 10148 ft 259 kts 25°
2026-05-06 19:55 38.25406 -77.47684 10116 ft 252 kts 16°
2026-05-06 19:55 38.27153 -77.47078 9594 ft 265 kts 14°
2026-05-06 19:55 38.28994 -77.46472 8746 ft 280 kts 14°
2026-05-06 19:56 38.30886 -77.45842 8175 ft 282 kts 14°
2026-05-06 19:56 38.32780 -77.45200 7702 ft 280 kts 14°
2026-05-06 19:56 38.34640 -77.44558 7381 ft 272 kts 15°
2026-05-06 19:56 38.36429 -77.43936 7187 ft 260 kts 15°
2026-05-06 19:57 38.38117 -77.43343 7141 ft 242 kts 15°
2026-05-06 19:57 38.39709 -77.42783 7132 ft 233 kts 15°
2026-05-06 19:57 38.41237 -77.42243 7140 ft 224 kts 15°
2026-05-06 19:57 38.42708 -77.41724 7166 ft 217 kts 15°
2026-05-06 19:58 38.44167 -77.41208 7152 ft 218 kts 15°
2026-05-06 19:58 38.45628 -77.40692 7161 ft 223 kts 15°
2026-05-06 19:58 38.47138 -77.40157 7156 ft 227 kts 15°
2026-05-06 19:58 38.48658 -77.39619 7144 ft 225 kts 15°
2026-05-06 19:59 38.50154 -77.39093 7116 ft 223 kts 14°
2026-05-06 19:59 38.51671 -77.38604 6982 ft 224 kts 13°
2026-05-06 19:59 38.53192 -77.38123 6774 ft 225 kts 13°
2026-05-06 19:59 38.54720 -77.37639 6606 ft 228 kts 13°
2026-05-06 20:00 38.56276 -77.37145 6425 ft 232 kts 13°
2026-05-06 20:00 38.57845 -77.36646 6238 ft 231 kts 13°
2026-05-06 20:00 38.59409 -77.36260 6046 ft 227 kts
2026-05-06 20:00 38.60979 -77.36189 5888 ft 225 kts
2026-05-06 20:01 38.62532 -77.36166 5726 ft 226 kts
2026-05-06 20:01 38.64108 -77.36138 5565 ft 227 kts
2026-05-06 20:01 38.65691 -77.36102 5395 ft 228 kts
2026-05-06 20:01 38.67279 -77.36059 5240 ft 229 kts
2026-05-06 20:02 38.68874 -77.36010 5066 ft 228 kts
2026-05-06 20:02 38.70452 -77.35957 4879 ft 225 kts
2026-05-06 20:02 38.72005 -77.35902 4718 ft 222 kts
2026-05-06 20:02 38.73540 -77.35847 4558 ft 219 kts
2026-05-06 20:03 38.75057 -77.35793 4396 ft 216 kts
2026-05-06 20:03 38.76553 -77.35738 4249 ft 214 kts
2026-05-06 20:03 38.78019 -77.35685 4163 ft 208 kts
2026-05-06 20:03 38.79442 -77.35633 4147 ft 201 kts
2026-05-06 20:04 38.80850 -77.35583 4158 ft 206 kts
2026-05-06 20:04 38.82305 -77.35531 4165 ft 213 kts
2026-05-06 20:04 38.83806 -77.35477 4166 ft 219 kts
2026-05-06 20:04 38.85347 -77.35421 4167 ft 224 kts
2026-05-06 20:05 38.86905 -77.35366 4157 ft 220 kts
2026-05-06 20:05 38.88398 -77.35311 4136 ft 208 kts
2026-05-06 20:05 38.89809 -77.35259 4129 ft 197 kts
2026-05-06 20:05 38.91142 -77.35210 4128 ft 189 kts
2026-05-06 20:06 38.92498 -77.35162 4152 ft 198 kts
2026-05-06 20:06 38.93871 -77.35112 4164 ft 202 kts
2026-05-06 20:06 38.95291 -77.35061 4167 ft 206 kts
2026-05-06 20:06 38.96742 -77.35008 4158 ft 211 kts
2026-05-06 20:07 38.98229 -77.34955 4170 ft 217 kts
2026-05-06 20:07 38.99757 -77.34899 4160 ft 223 kts
2026-05-06 20:07 39.01289 -77.34844 4147 ft 217 kts
2026-05-06 20:07 39.02780 -77.34790 4135 ft 211 kts
2026-05-06 20:08 39.04228 -77.34739 4131 ft 205 kts
2026-05-06 20:08 39.05633 -77.34689 4134 ft 199 kts
2026-05-06 20:08 39.07015 -77.34641 4137 ft 199 kts
2026-05-06 20:08 39.08396 -77.34593 4146 ft 199 kts
2026-05-06 20:09 39.09788 -77.34546 4153 ft 201 kts
2026-05-06 20:09 39.11183 -77.34496 4071 ft 201 kts
2026-05-06 20:09 39.12589 -77.34447 3923 ft 203 kts
2026-05-06 20:09 39.14018 -77.34397 3678 ft 207 kts
2026-05-06 20:10 39.15452 -77.34346 3443 ft 210 kts
2026-05-06 20:10 39.16935 -77.34255 3213 ft 211 kts
2026-05-06 20:10 39.18347 -77.33835 3176 ft 206 kts 18°
2026-05-06 20:10 39.19621 -77.33067 3132 ft 200 kts 37°
2026-05-06 20:11 39.20504 -77.31730 3033 ft 199 kts 62°
2026-05-06 20:11 39.20940 -77.30007 2728 ft 207 kts 83°